Wind_Speed
70 67 64 61 58 58 60 62 59 56 55 55 56 57 59 58 55 52 51 48 43 38 39 40 39 39 40 41 43 44 44 44 43 40 38 37 35 34 34 35 35 35
70 68 67 65 63 60 60 60 58 56 56 56 57 58 60 61 61 60 58 54 49 44 41 43 43 43 45 46 47 47 47 46 44 42 40 38 36 34 35 35 35 35
69 68 68 67 66 64 62 61 59 57 57 57 58 59 60 62 63 63 62 59 56 51 47 47 48 47 48 49 50 50 49 47 45 43 41 39 36 34 35 35 36 36
67 67 67 66 66 65 63 61 59 58 57 57 59 60 61 62 63 64 64 63 61 57 52 51 52 52 52 53 53 52 51 49 46 43 40 38 35 34 35 35 36 37
69 67 66 65 65 64 63 60 58 58 58 58 60 61 61 62 63 64 64 64 64 60 56 55 55 55 55 56 55 54 52 51 48 45 41 38 35 35 34 35 36 37
72 70 67 66 65 64 62 60 59 59 58 60 62 62 63 63 64 65 65 65 64 62 59 57 56 55 55 56 56 54 54 52 50 46 42 39 38 37 35 35 36 36
72 70 66 64 62 60 59 61 62 63 62 61 61 62 65 66 66 66 66 66 65 63 61 59 57 56 55 55 54 54 55 54 51 47 43 39 39 39 36 35 35 35
71 68 63 60 59 56 55 58 62 67 69 66 64 64 67 69 68 66 65 65 64 64 63 60 58 57 55 55 55 54 54 54 51 47 43 40 41 40 36 34 34 34
70 65 62 63 63 61 60 62 65 69 72 71 68 69 70 69 67 65 63 62 63 63 63 61 59 57 56 56 55 54 54 53 50 47 44 42 42 40 35 33 34 33
71 67 66 67 71 71 70 73 75 74 72 70 69 69 68 66 64 61 59 59 60 61 62 60 58 57 56 56 56 54 53 52 49 46 44 43 42 39 34 32 34 33
75 72 72 72 74 77 77 78 79 78 74 70 67 65 64 62 61 58 56 57 59 61 61 59 56 55 55 55 55 53 52 50 48 45 43 42 41 38 33 32 33 33
79 76 76 76 78 81 82 80 78 78 76 71 66 64 63 61 59 57 57 60 62 61 61 59 56 55 55 55 54 52 50 48 46 43 42 43 41 37 32 31 32 34
83 81 80 80 80 83 86 84 79 77 77 75 69 66 65 65 65 66 64 63 63 63 61 59 57 56 55 54 53 50 47 47 45 43 43 44 41 37 33 32 33 35
85 85 84 84 84 84 87 87 83 79 77 78 75 72 72 72 72 71 68 65 64 64 63 61 59 56 55 54 52 48 46 46 45 44 45 45 42 38 35 34 35 38
86 88 87 87 87 86 87 89 88 85 81 78 75 74 73 71 69 67 67 66 65 64 64 62 60 57 56 55 53 49 47 46 46 46 46 46 44 40 37 37 38 41
87 89 89 89 89 88 88 89 89 89 86 80 74 70 68 67 66 65 65 65 65 64 64 63 60 58 58 58 55 52 49 48 48 49 49 48 46 43 40 41 42 44
87 89 90 91 91 89 87 87 88 88 86 82 76 72 68 65 62 61 62 64 65 65 65 64 61 60 61 61 58 55 52 50 51 52 52 51 50 47 45 46 47 48
87 89 91 91 92 91 88 88 89 88 86 82 78 74 69 62 56 55 59 63 66 66 67 66 63 62 62 63 62 59 56 54 55 55 54 54 53 52 52 52 52 52
88 89 91 92 93 93 91 90 90 90 87 84 80 78 73 65 57 53 55 59 64 67 68 67 65 64 63 64 64 64 61 59 58 59 58 57 57 57 57 56 56 56
91 90 91 93 95 95 95 93 91 90 89 85 82 79 77 72 65 57 53 55 61 66 67 67 65 65 65 66 67 67 66 64 62 61 61 60 59 59 59 58 58 57
94 92 91 93 95 98 99 97 92 90 90 88 84 80 78 76 73 67 60 55 57 63 67 68 66 66 66 68 70 71 69 67 64 62 62 61 60 60 59 59 58 57
96 95 93 94 95 98 100 98 93 91 90 90 88 84 80 77 75 75 69 60 56 60 65 67 68 67 65 65 67 69 69 67 65 63 62 61 61 60 60 59 59 58
98 97 96 96 96 97 98 97 95 92 91 91 89 87 83 78 75 76 75 66 60 60 63 67 70 69 66 64 64 64 65 65 63 60 60 60 60 61 60 60 60 60
100 98 98 97 96 96 97 97 97 95 93 91 88 86 85 82 77 75 74 68 62 61 65 69 71 71 68 66 65 63 61 60 58 57 58 60 61 61 60 61 61 61
102 100 99 99 97 96 96 96 97 97 95 92 89 85 85 84 79 72 69 65 61 62 65 69 71 72 69 66 64 62 59 58 58 57 58 61 62 62 61 61 61 59
103 101 100 99 98 96 95 94 94 95 95 93 90 87 86 85 80 72 66 63 62 63 64 65 67 70 69 66 64 62 61 62 63 61 59 61 60 57 56 58 59 56
Wind_Direction
233 235 233 232 234 237 239 240 236 233 232 232 233 235 237 240 244 248 251 252 254 261 264 265 264 262 263 270 279 287 290 291 292 294 298 299 299 301 304 304 304 305
232 234 233 232 234 237 240 243 241 237 234 233 234 236 238 240 244 247 250 251 253 259 263 264 263 263 267 273 279 284 287 289 289 290 294 296 296 299 301 301 302 304
231 232 232 232 234 237 240 243 244 241 238 235 235 238 240 241 244 247 250 251 253 257 262 263 262 264 269 273 277 281 283 286 287 287 291 293 293 295 298 299 301 301
230 232 232 232 233 236 239 242 245 245 242 240 239 239 241 243 245 247 250 252 254 257 261 262 262 264 268 271 275 278 279 282 284 284 287 289 289 292 295 297 299 299
229 230 231 232 233 234 237 240 243 245 245 245 244 242 242 243 245 247 250 254 256 258 261 262 261 263 266 268 271 274 276 278 280 281 284 284 285 288 292 294 296 296
228 228 228 230 231 232 234 236 238 241 243 246 247 245 243 243 244 246 249 253 257 260 261 261 261 262 264 266 268 271 273 275 276 279 281 281 282 284 287 291 292 292
228 229 230 233 236 237 236 237 237 238 240 244 247 247 245 243 243 244 247 251 255 258 260 260 260 261 263 264 266 269 272 273 275 277 279 279 279 280 284 287 287 287
227 228 230 235 241 246 246 245 243 240 240 244 249 250 248 244 242 243 246 250 253 256 258 260 260 261 262 263 265 267 271 272 274 276 277 277 276 277 280 281 282 283
225 225 226 227 230 236 241 245 247 244 242 245 250 253 250 245 242 244 247 250 253 256 257 259 260 260 260 261 263 265 269 271 273 275 276 275 274 274 275 276 277 278
221 220 222 224 223 225 229 235 240 243 243 245 249 251 247 243 241 244 247 251 254 256 257 258 258 258 258 260 262 265 268 270 272 273 273 272 270 269 268 270 272 273
219 217 218 221 222 222 224 228 234 238 241 243 245 245 241 238 239 243 249 254 256 257 257 257 256 256 258 261 263 265 268 270 270 270 270 267 265 263 263 265 267 269
219 217 217 219 220 221 222 225 230 234 236 239 240 238 235 234 237 246 254 257 257 257 256 256 256 257 259 262 264 265 267 267 267 266 264 262 260 259 258 259 263 268
218 218 218 219 221 222 222 224 228 233 234 235 235 233 232 235 243 252 255 254 255 255 254 255 257 259 261 262 264 265 264 264 263 261 259 257 256 255 255 257 263 271
219 219 218 219 222 224 223 224 227 231 233 234 234 235 237 243 250 252 249 249 252 253 253 254 257 258 260 261 263 262 260 260 260 257 255 255 254 254 255 259 266 275
219 220 219 219 221 224 224 224 226 230 233 234 235 238 241 246 249 248 245 246 249 250 251 253 255 256 257 258 260 259 257 256 256 254 253 253 253 253 257 262 270 278
220 220 220 220 221 223 224 226 227 229 232 235 236 238 241 246 248 248 246 245 246 248 250 251 253 254 254 256 257 257 255 254 254 253 252 253 253 255 260 268 275 281
221 221 221 221 221 222 224 226 228 229 231 234 235 236 240 245 249 250 248 246 246 248 249 250 251 252 252 253 255 255 254 253 253 253 253 255 255 258 265 273 278 281
222 221 221 221 221 222 223 225 227 228 230 232 233 234 236 241 247 250 249 247 246 247 248 250 250 251 252 252 253 254 254 253 252 253 253 255 257 261 266 272 276 279
223 222 221 221 222 222 223 224 226 227 229 231 233 233 235 239 245 249 249 248 247 246 247 248 249 250 251 251 252 253 253 253 253 254 254 255 259 263 267 270 274 277
224 223 222 222 222 222 223 224 226 227 228 230 232 234 236 239 243 247 249 249 247 245 245 246 247 248 250 251 252 252 253 254 255 256 258 259 260 264 268 271 275 278
224 223 223 223 223 223 223 224 225 226 228 229 231 234 237 239 241 244 247 250 248 245 244 244 244 245 248 250 252 252 253 254 256 259 261 263 265 267 270 273 277 280
223 223 223 224 224 224 224 224 225 226 228 229 230 232 236 239 241 242 245 251 254 251 247 245 244 243 244 247 250 252 253 254 257 260 263 265 268 270 272 275 277 280
223 223 223 224 225 225 225 225 225 227 228 229 231 233 235 239 241 241 242 248 256 255 249 246 246 244 243 244 246 249 252 254 256 260 263 265 267 269 271 273 275 278
223 223 223 224 224 225 225 225 226 228 229 230 231 232 234 237 239 240 240 245 254 254 247 244 245 245 242 241 241 244 250 254 257 259 262 262 263 265 267 270 273 276
223 223 224 224 225 225 225 225 226 228 229 230 231 232 234 235 237 239 240 245 250 248 243 242 244 244 242 240 240 243 248 254 257 259 260 259 259 261 264 267 270 273
223 223 224 225 225 225 225 225 226 227 229 230 231 233 234 234 236 238 240 243 245 242 239 240 242 243 243 242 244 246 250 253 257 260 261 259 259 261 264 266 267 270
Height
10679 10684 10687 10689 10691 10693 10695 10698 10705 10710 10714 10717 10720 10722 10724 10728 10731 10733 10733 10734 10737 10739 10740 10741 10741 10742 10742 10742 10743 10743 10744 10744 10744 10744 10744 10744 10743 10743 10743 10743 10743 10742
10673 10678 10681 10684 10687 10689 10691 10694 10699 10705 10709 10712 10714 10717 10720 10723 10726 10727 10728 10730 10732 10735 10736 10737 10737 10737 10737 10738 10739 10740 10740 10741 10741 10741 10742 10741 10740 10740 10740 10740 10739 10739
10665 10671 10675 10680 10682 10684 10686 10688 10692 10699 10703 10706 10709 10711 10714 10717 10720 10722 10723 10725 10727 10730 10732 10733 10733 10734 10734 10734 10735 10736 10737 10737 10738 10738 10739 10739 10738 10737 10736 10736 10736 10736
10659 10665 10670 10674 10676 10679 10681 10683 10687 10692 10697 10700 10703 10705 10707 10711 10714 10716 10718 10720 10722 10725 10727 10728 10729 10730 10730 10730 10731 10732 10733 10734 10734 10734 10735 10736 10735 10733 10733 10732 10732 10732
10652 10657 10662 10666 10670 10673 10676 10680 10684 10686 10690 10693 10694 10697 10701 10704 10707 10710 10712 10714 10716 10719 10722 10723 10724 10726 10726 10726 10727 10728 10729 10729 10730 10731 10732 10732 10731 10730 10729 10729 10729 10729
10644 10649 10653 10658 10662 10667 10672 10676 10679 10680 10682 10684 10686 10689 10694 10697 10700 10703 10706 10709 10711 10714 10716 10718 10719 10721 10722 10722 10723 10723 10724 10725 10726 10727 10728 10728 10728 10726 10726 10725 10725 10725
10639 10645 10650 10655 10659 10664 10669 10672 10673 10674 10675 10676 10678 10682 10686 10690 10693 10697 10699 10702 10706 10708 10710 10712 10714 10716 10717 10718 10719 10718 10718 10719 10721 10722 10723 10724 10723 10722 10721 10721 10721 10722
10633 10641 10648 10654 10658 10662 10666 10668 10668 10668 10668 10670 10672 10675 10678 10682 10685 10690 10693 10697 10700 10703 10705 10707 10708 10710 10712 10713 10714 10713 10713 10714 10716 10717 10719 10719 10719 10718 10717 10716 10717 10718
10627 10636 10642 10644 10649 10655 10660 10662 10660 10659 10660 10663 10666 10668 10671 10675 10679 10684 10688 10691 10695 10697 10699 10702 10703 10704 10706 10707 10708 10709 10709 10709 10711 10712 10714 10714 10714 10714 10713 10712 10712 10713
10619 10626 10630 10632 10637 10642 10647 10649 10648 10649 10652 10656 10660 10662 10666 10670 10674 10678 10683 10686 10689 10691 10693 10695 10697 10699 10700 10701 10703 10705 10705 10704 10706 10707 10708 10708 10709 10709 10708 10707 10708 10709
10612 10615 10618 10622 10627 10631 10634 10636 10638 10641 10645 10649 10654 10657 10661 10665 10669 10673 10678 10681 10683 10685 10686 10689 10692 10694 10695 10696 10698 10699 10700 10699 10700 10702 10702 10703 10703 10703 10703 10703 10703 10704
10604 10608 10611 10615 10618 10621 10624 10627 10630 10633 10637 10642 10647 10651 10655 10659 10663 10667 10672 10676 10678 10679 10680 10683 10686 10688 10690 10692 10693 10694 10695 10694 10695 10696 10697 10697 10698 10698 10698 10698 10699 10699
10595 10600 10604 10608 10611 10614 10616 10619 10624 10627 10631 10636 10640 10644 10648 10653 10657 10661 10666 10670 10671 10673 10675 10677 10680 10683 10685 10687 10688 10689 10689 10689 10689 10690 10691 10692 10692 10693 10693 10694 10694 10694
10587 10591 10594 10599 10603 10606 10609 10614 10618 10621 10624 10628 10633 10639 10643 10648 10651 10655 10659 10663 10665 10667 10669 10672 10675 10678 10680 10681 10682 10683 10683 10683 10683 10685 10686 10687 10687 10688 10688 10688 10689 10689
10577 10580 10585 10589 10593 10597 10602 10607 10611 10614 10618 10623 10630 10635 10639 10642 10645 10648 10652 10656 10659 10661 10663 10666 10669 10672 10674 10675 10676 10677 10677 10678 10678 10679 10681 10682 10682 10682 10683 10683 10683 10684
10566 10571 10576 10580 10585 10590 10595 10599 10605 10610 10614 10620 10626 10631 10634 10636 10639 10642 10646 10650 10653 10655 10657 10660 10663 10666 10667 10668 10669 10670 10671 10672 10673 10673 10674 10676 10677 10678 10678 10678 10678 10679
10557 10563 10568 10573 10578 10583 10588 10594 10600 10605 10610 10614 10620 10624 10627 10630 10633 10637 10640 10643 10646 10648 10651 10654 10657 10659 10660 10661 10663 10663 10665 10666 10666 10667 10668 10670 10671 10672 10673 10673 10674 10674
10550 10555 10561 10566 10571 10576 10582 10586 10591 10596 10602 10607 10612 10616 10619 10623 10627 10630 10633 10636 10639 10642 10644 10647 10650 10651 10653 10654 10656 10656 10657 10658 10659 10660 10662 10663 10664 10666 10667 10668 10669 10669
10541 10547 10553 10559 10564 10570 10574 10577 10581 10588 10594 10600 10604 10608 10612 10616 10620 10624 10626 10629 10632 10635 10637 10640 10643 10644 10645 10647 10648 10648 10649 10651 10652 10653 10655 10658 10659 10660 10661 10663 10664 10665
10531 10538 10545 10551 10556 10561 10565 10568 10574 10581 10588 10593 10598 10602 10606 10610 10614 10617 10619 10621 10624 10627 10628 10631 10634 10635 10636 10638 10639 10640 10641 10643 10646 10647 10649 10652 10654 10655 10656 10657 10658 10659
10521 10529 10536 10541 10546 10551 10554 10559 10566 10574 10580 10585 10590 10595 10599 10602 10606 10609 10612 10613 10616 10618 10619 10620 10623 10624 10625 10628 10629 10629 10632 10637 10641 10643 10645 10647 10649 10650 10651 10652 10652 10653
10510 10518 10525 10531 10536 10541 10546 10553 10560 10566 10571 10576 10582 10588 10592 10595 10599 10603 10606 10608 10610 10612 10612 10613 10614 10614 10615 10618 10619 10620 10625 10631 10636 10640 10642 10643 10644 10644 10645 10646 10646 10647
10499 10507 10515 10521 10526 10533 10540 10547 10554 10559 10564 10569 10576 10581 10585 10589 10592 10595 10598 10601 10604 10606 10607 10608 10608 10608 10609 10611 10612 10614 10619 10625 10631 10636 10638 10638 10638 10638 10639 10640 10640 10641
10489 10497 10505 10511 10517 10525 10532 10539 10546 10551 10556 10562 10568 10574 10577 10580 10584 10587 10591 10595 10598 10599 10600 10601 10601 10602 10603 10604 10606 10609 10615 10620 10625 10629 10631 10630 10630 10631 10632 10634 10635 10635
10480 10487 10494 10501 10509 10516 10523 10530 10537 10542 10546 10552 10560 10565 10569 10572 10577 10582 10586 10589 10590 10591 10593 10594 10595 10595 10596 10599 10601 10605 10611 10615 10618 10621 10622 10621 10622 10624 10627 10628 10629 10629
10471 10478 10485 10492 10499 10507 10513 10520 10527 10532 10537 10544 10551 10556 10560 10565 10571 10576 10580 10581 10583 10585 10587 10589 10590 10589 10591 10594 10597 10601 10606 10609 10611 10613 10614 10613 10616 10621 10623 10623 10623 10623